カタログに戻る

THOR ABLESTAR DEB

運用中LEO
NORAD 470·DEBRIS·🇺🇸 United States

打ち上げ Jun 29, 1961 から Cape Canaveral Space Force Station

Loading…

次のパス (今後24時間)

TLE

最新Source: Space-Track

元期: Sep 14, 2026, 15:40 UTC

1 00470U 61015FG  26257.65301637  .00000625  00000-0  39639-3 0  9993
2 00470  66.2309  42.7999 0074188 271.6028  87.6559 14.09427115325007

AllMySatでTHOR ABLESTAR DEBをリアルタイム追跡

Download on the App Store